Regional Weather Roundup
Issued by NWS

Home | Current Version | Previous Version | Graphics & Text | Print | Product List | Glossary On
Versions: 1 2 3 4 5 6 7 8 9 10 11 12 13 14 15 16 17 18 19 20 21 22 23 24 25 26 27 28 29 30 31 32 33 34 35 36 37 38 39 40 41 42 43 44 45 46 47 48 49 50
000
ASUS45 KCYS 251610
RWRWY

WYOMING REGIONAL WEATHER ROUNDUP
NATIONAL WEATHER SERVICE CHEYENNE WY
1000 AM MDT THU AUG 25 2016

NOTE:  "FAIR" INDICATES FEW OR NO CLOUDS BELOW 12,000 FEET
WITH NO SIGNIFICANT WEATHER AND/OR OBSTRUCTIONS TO VISIBILITY.

WYZ001-251700-
YELLOWSTONE NATIONAL PARK

CITY           SKY/WX    TMP DP  RH WIND       PRES   REMARKS
LK YELLOWSTONE   N/A     46  38  73 CALM      30.36S
W YELLOWSTONE  NOT AVBL

$$
WYZ002>013-054>058-071-098>099-251700-
NORTHERN WYOMING

CITY           SKY/WX    TMP DP  RH WIND       PRES   REMARKS
JACKSON          N/A     50  36  57 S5        30.31F
CODY           FAIR      55  41  58 E3        30.31S
GREYBULL       FAIR      59  38  45 VRB7      30.29S
WORLAND        CLOUDY    55  43  63 CALM      30.30S
SHERIDAN       FAIR      59  41  51 VRB3      30.31F
BUFFALO        CLOUDY    53  38  56 CALM      30.34S
GILLETTE       PTSUNNY   54  41  61 N3        30.32S
HULETT         FAIR      54  41  62 N5        30.34R
NEWCASTLE      FAIR      54  39  58 NW10      30.33S

$$
WYZ014>020-022>026-101>103-251700-
CENTRAL WYOMING

CITY           SKY/WX    TMP DP  RH WIND       PRES   REMARKS
BIG PINEY      CLOUDY    52  38  58 S10       30.36S
PINEDALE       CLOUDY    50  34  53 SW3       30.36S
DUBOIS         CLOUDY    45  37  76 SE9       30.35S
LANDER         PTSUNNY   55  43  63 E8        30.32S
RIVERTON       PTSUNNY   53  46  77 VRB5      30.34S
CASPER         CLOUDY    54  47  77 E10       30.34S
DOUGLAS        CLOUDY    50  46  86 SE6       30.36R

$$
WYZ021-027>030-104>119-251700-
SOUTHERN WYOMING

CITY           SKY/WX    TMP DP  RH WIND       PRES   REMARKS
EVANSTON       FAIR      50  37  61 E10       30.31S
FORT BRIDGER   FAIR      53  40  62 SE7       30.35S
ROCK SPRINGS   NOT AVBL
DIXON          FAIR      55  38  54 W5        30.33S
RAWLINS        CLOUDY    53  39  59 E16G23    30.33S
SARATOGA       FAIR      52  43  71 NW3       30.33S
LARAMIE        CLOUDY    54  42  64 S14       30.34S
CHEYENNE       PTSUNNY   53  44  71 NE10      30.35S
TORRINGTON     CLOUDY    57  43  59 NE7       30.33R
PINE BLUFFS    PTSUNNY   55  46  71 N10G18    30.34R

$$



USA.gov is the U.S. government's official web portal to all federal, state and local government web resources and services.